Montrose, CO

7:37 PM MDT on March 25, 2017 (GMT -0600)
Montrose Regional

Weather History for KMTJ - August, 2014

Change the Weather History Date:

Sunday, August 31, 2014

  Actual Average Record
Temperature  
Mean Temperature 72 °F 68 °F  
Max Temperature 87 °F 83 °F 90 °F (2013)
Min Temperature 57 °F 52 °F 46 °F (2005)
Degree Days  
Heating Degree Days 0 1  
Month to date heating degree days 7 3  
Since 1 June heating degree days 25 44  
Since 1 July heating degree days 7 5  
Cooling Degree Days 7 3  
Month to date cooling degree days 176 183  
Year to date cooling degree days 698 605  
Since 1 June cooling degree days 657 588  
Growing Degree Days 24 (Base 50)    
Moisture  
Dew Point 38 °F    
Average Humidity 32    
Maximum Humidity 51    
Minimum Humidity 13    
Precipitation  
Precipitation 0.00 in 0.04 in 0.33 in (1997)
Month to date precipitation 1.47 1.26  
Year to date precipitation 5.57 7.33  
Sea Level Pressure  
Sea Level Pressure 29.75 in    
Wind  
Wind Speed 10 mph (South)    
Max Wind Speed 25 mph    
Max Gust Speed 32 mph    
Visibility 10 miles    
Events      
T = Trace of Precipitation, MM = Missing Value Source: NWS Daily Summary

Daily Weather History Graph

Daily Weather History Graph

Search for Another Location

Airport or City:

Trip Planner

Search our weather history database for the weather conditions in past years. The results will help you decide how hot, cold, wet, or windy it might be!

Date:

Astronomy

Aug. 31, 2014 Rise Set
Actual Time 6:40 AM MDT 7:42 PM MDT
Civil Twilight 6:12 AM MDT 8:10 PM MDT
Nautical Twilight 5:40 AM MDT 8:42 PM MDT
Astronomical Twilight 5:06 AM MDT 9:15 PM MDT
Moon 12:24 PM MDT (8/31) 11:04 PM MDT (8/31)
Length of Visible Light 13h 57m
Length of Day
13h 02m
Waxing Crescent, 32% of the Moon is Illuminated
Aug 31
Waxing Crescent
Sep 2
First Quarter
Sep 8
Full
Sep 15
Last Quarter
Sep 24
New

Hourly Weather History & Observations

Time (MDT) Temp. Dew Point Humidity Pressure Visibility Wind Dir Wind Speed Gust Speed Precip Events Conditions
12:53 AM 64.0 °F 39.9 °F 41% 29.76 in 10.0 mi SSE 10.4 mph - N/A   Clear
1:53 AM 63.0 °F 39.9 °F 43% 29.75 in 10.0 mi SSE 12.7 mph - N/A   Clear
2:53 AM 62.1 °F 41.0 °F 46% 29.76 in 10.0 mi Calm Calm - N/A   Clear
3:53 AM 61.0 °F 41.0 °F 48% 29.75 in 10.0 mi SE 8.1 mph - N/A   Clear
4:53 AM 63.0 °F 41.0 °F 45% 29.74 in 10.0 mi SSE 12.7 mph - N/A   Clear
5:53 AM 63.0 °F 41.0 °F 45% 29.74 in 10.0 mi SSE 15.0 mph - N/A   Clear
6:53 AM 63.0 °F 39.9 °F 43% 29.74 in 10.0 mi East 8.1 mph - N/A   Clear
7:53 AM 68.0 °F 37.9 °F 33% 29.76 in 10.0 mi SE 10.4 mph - N/A   Clear
8:53 AM 70.0 °F 37.9 °F 31% 29.79 in 10.0 mi Variable 5.8 mph - N/A   Clear
9:53 AM 73.9 °F 37.9 °F 27% 29.79 in 10.0 mi East 3.5 mph - N/A   Clear
10:53 AM 78.1 °F 35.1 °F 21% 29.78 in 10.0 mi WSW 17.3 mph 24.2 mph N/A   Clear
11:53 AM 79.0 °F 35.1 °F 20% 29.77 in 10.0 mi WSW 13.8 mph - N/A   Clear
12:53 PM 82.0 °F 36.0 °F 19% 29.74 in 10.0 mi SW 16.1 mph 25.3 mph N/A   Partly Cloudy
1:53 PM 82.0 °F 35.1 °F 18% 29.74 in 10.0 mi SW 15.0 mph 27.6 mph N/A   Scattered Clouds
2:53 PM 82.9 °F 36.0 °F 19% 29.72 in 10.0 mi SW 13.8 mph 24.2 mph N/A   Clear
3:53 PM 82.0 °F 36.0 °F 19% 29.71 in 10.0 mi WSW 10.4 mph 21.9 mph N/A   Scattered Clouds
4:53 PM 87.1 °F 30.9 °F 13% 29.68 in 10.0 mi West 19.6 mph 29.9 mph N/A   Clear
5:53 PM 86.0 °F 30.9 °F 14% 29.68 in 10.0 mi West 17.3 mph 27.6 mph N/A   Clear
6:53 PM 82.9 °F 32.0 °F 16% 29.70 in 10.0 mi West 12.7 mph - N/A   Clear
7:53 PM 75.0 °F 36.0 °F 24% 29.72 in 10.0 mi Calm Calm - N/A   Clear
8:53 PM 66.9 °F 41.0 °F 39% 29.76 in 10.0 mi NE 4.6 mph - N/A   Clear
9:53 PM 62.1 °F 42.1 °F 48% 29.81 in 10.0 mi SE 5.8 mph - N/A   Clear
10:53 PM 60.1 °F 42.1 °F 51% 29.81 in 10.0 mi East 4.6 mph - N/A   Partly Cloudy
11:53 PM 59.0 °F 41.0 °F 51% 29.84 in 10.0 mi ESE 8.1 mph - N/A   Clear